Weather in Mamonovka

Russia / Voronezh Oblast     50°23′35″N   40°30′18″E
В апреле 2022 года жителям России запретили посещать сайт meteo.paraplan.net по решению Генеральной прокуратуры. Аудитория сайта уменьшилась в 10 раз. Владельцы сайта не видят смысла в поддержке погодного сервера в таких условиях. Сайт будет закрыт в октябре.
temp.,
°C
wind,
m/s
gust,
m/s
humid.,
%
clouds,
%
prec.,
mm/h
press.,
hPa
HPBL,
m
25 september, sun
sun2500:00+9sw497842 0.1 1010337
03:00+7sw51185100 0.0 1009288
06:00+7sw61391100 0.0 1008541
09:00+8sw81389100 1.8 10081417
12:00+9wsw71288100 1.2 10091308
15:00+8w81288100 2.4 10111359
18:00+8w51489100 1.7 10121262
21:00+8wsw379010 1.7 1013186
26 september, mon
mon2600:00+8wsw615795 0.0 1013435
03:00+6wsw5128525 0.0 1014287
06:00+7wsw5128293 0.0 1014370
09:00+9wsw41172100 0.0 1016488
12:00+12wsw5859100 0.0 1016670
15:00+15w584851 0.0 10151661
18:00+13e1159100 0.0 101510
21:00+11se2268100 0.0 101519
27 september, tue
tue2700:00+12sse238691 0.0 101460
03:00+12s1191100 0.3 101321
06:00+11sse3689100 0.1 1012161
09:00+14ssw51178100 0.1 1011494
12:00+18ssw6856100 0.2 10111008
15:00+18s5753100 0.2 10101008
18:00+16sse4862100 0.0 1010220
21:00+14ese247998 0.4 1010118
28 september, wed
wed2800:00+13ese4980100 0.0 1008186
03:00+13se4885100 0.0 1006176
06:00+14se51175100 0.0 1005219
09:00+15se61278100 0.0 1004397
12:00+19sse6960100 0.0 1003622
15:00+17ssw387373 0.6 1004332
18:00+16ssw3584100 0.1 1004101
21:00+15ssw36903 0.2 100599
29 september, thu
thu2900:00+13wnw3794100 0.0 1007153
03:00+11w349117 0.0 100874
06:00+10wnw34920 0.0 101070
09:00+14nw45760 0.0 1012366
12:00+18nw44565 0.0 1013859
15:00+19nw44525 0.0 10141091
18:00+15nnw33685 0.0 101625
21:00+13nne337619 0.0 101732